Home > Weather > Luckenwalde > Past weeks

Flag for Germany Past Weather in Luckenwalde, Brandenburg, Germany — Yesterday and Last 2 Weeks

Now
63 °F

Fog.


Feels Like: 63 °F
Forecast: 61 / 75 °F
Wind: 1 mph from North

Location: Holzdorf

Current Time: May 31, 2016 at 9:59:53 PM

Latest Report: May 31, 2016 at 9:20 PM


Visibility: 4 mi

Pressure: 29.83 "Hg

Humidity: 94%

Dew Point: 61 °F

Location of LuckenwaldeLocation

Past Weather in Luckenwalde — Graph

°F

Luckenwalde Temperature Yesterday

Maximum temperature yesterday: 79 °F (at 5:20 PM)
Minimum temperature yesterday: 59 °F (at 11:20 PM)
Average temperature yesterday: 70 °F

High & Low Weather Summary for the Past Weeks

 TemperatureHumidityPressure
High84 °F (May 22, 4:20 PM)100% (May 23, 10:20 PM)30.07 "Hg (May 23, 10:20 PM)
Low43 °F (May 17, 2:20 AM)25% (May 19, 1:20 PM)29.62 "Hg (May 30, 3:20 AM)
Average62 °F70%29.89 "Hg
* Reported May 16 8:20 PM — May 31 8:20 PM, Luckenwalde, Weather by CustomWeather, © 2016

Note: Actual official high and low records may vary slightly from our data, if they occured in-between our weather recording intervals... More about our weather records

Advertising

Luckenwalde Weather History for the Previous 24 Hours

Scroll right to see more
 ConditionsComfort  
Time TempWeatherWind HumidityBarometerVisibility
8:20 PM
Tue, May 31
63 °FBroken clouds.3 mph94%29.83 "Hg5 mi
7:20 PM63 °FBroken clouds.5 mph94%29.83 "HgN/A
6:20 PM61 °FThunderstorms. Partly sunny.10 mph94%29.83 "Hg2 mi
5:57 PM66 °FStrong thunderstorms. Partly sunny.6 mph83%29.86 "Hg1 mi
5:20 PM66 °FThunderstorms. Broken clouds.6 mph88%29.80 "HgN/A
4:20 PM73 °FThunderstorms. Broken clouds.8 mph53%29.80 "HgN/A
3:48 PM72 °FThunderstorms. Partly sunny.15 mph69%29.80 "HgN/A
3:20 PM79 °FThundershowers. Scattered clouds.8 mph51%29.80 "HgN/A
2:20 PM75 °FScattered clouds.3 mph54%29.80 "HgN/A
1:20 PM75 °FScattered clouds.3 mph54%29.83 "HgN/A
12:20 PM75 °FScattered clouds.6 mph54%29.83 "HgN/A
11:20 AM73 °FScattered clouds.3 mph57%29.83 "HgN/A
10:20 AM72 °FScattered clouds.3 mph61%29.83 "HgN/A
9:20 AM70 °FScattered clouds.5 mph69%29.83 "HgN/A
8:20 AM66 °FScattered clouds.2 mph78%29.83 "HgN/A
7:20 AM61 °FScattered clouds.2 mph88%29.80 "HgN/A
6:20 AM54 °FFog.1 mph100%29.80 "HgN/A
5:20 AM52 °FFog.No wind100%29.80 "HgN/A
4:20 AM54 °FFog.2 mph100%29.77 "Hg4 mi
3:20 AM54 °FFog.2 mph100%29.77 "Hg5 mi
2:20 AM55 °FFog.No wind100%29.77 "Hg3 mi
1:20 AM57 °FFog.No wind100%29.77 "Hg4 mi
12:20 AM57 °FPassing clouds.No wind100%29.77 "HgN/A
11:20 PM
Mon, May 30
59 °FPassing clouds.1 mph100%29.74 "HgN/A
10:20 PM61 °FPassing clouds.2 mph100%29.74 "HgN/A
9:20 PM63 °FScattered clouds.3 mph94%29.71 "HgN/A
Weather by CustomWeather, © 2016

See weather overviewHow to use our weather pages